Simultaneous Nadir Overpasses (SNOs) Predictions

Prediction of SNOs between NOAA-19 and METOP-C Satellite Orbit:

Table of predicted SNOs for the next 14.0 days since TLE Epoch: 5/18/2024
Index Date (NOAA-19) Time (NOAA-19) Lat,Lon (NOAA-19) SZA (NOAA-19 ) Date (METOP-C) Time (METOP-C) Lat,Lon (METOP-C) SZA (METOP-C ) Distance(km) Time Diff (sec)
1 05/21/2024 07:20:23 -79.89, -88.98 119.68 05/21/2024 07:21:22 -79.90, -88.85 119.64 2.88 59
2 05/21/2024 08:11:15 79.93, 78.68 60.38 05/21/2024 08:12:02 79.94, 78.82 60.41 2.94 47
3 05/21/2024 09:02:18 -79.97,-113.55 119.55 05/21/2024 09:02:41 -79.98,-113.41 119.53 3.05 23
4 05/21/2024 09:53:10 80.01, 54.12 60.50 05/21/2024 09:53:21 80.02, 54.27 60.53 3.09 11
5 05/21/2024 10:44:13 -80.05,-138.11 119.43 05/21/2024 10:44:00 -80.06,-137.95 119.41 3.21 13
6 05/21/2024 11:35:05 80.08, 29.58 60.63 05/21/2024 11:34:40 80.09, 29.74 60.64 3.25 25
7 05/21/2024 12:26:06 -80.17,-162.02 119.21 05/21/2024 12:25:18 -80.16,-162.18 119.25 3.20 48



Historial Predications of SNOs between NOAA-19 and METOP-C
